Wind_Speed
65 64 62 62 55 45 47 52 50 46 44 42 40 37 34 35 35 32 32 31 30 31 28 25 23 23 25 25 25 26 26 25 24 24 24 24 25 26 25 25 25 24 24 25 26 24 23 23 24 25 25 25 25 25 25 25 25 27 27 27 27 28 29 28 28 30 31 32 33 33 33 33 32 31 30 30 30 29 28 27 26 26 26 26 26 25
67 67 63 60 57 49 44 47 48 46 45 44 43 41 37 38 37 35 37 34 30 31 30 29 26 22 24 25 24 25 24 22 22 23 22 22 23 23 23 25 25 26 26 27 27 26 25 24 25 25 25 25 26 27 27 27 27 28 28 28 28 29 30 30 30 31 32 33 35 35 36 36 35 33 32 33 33 32 30 28 27 28 28 28 29 29
69 68 65 60 59 57 50 47 47 46 45 46 45 43 41 39 37 37 39 36 32 33 33 34 30 23 24 26 24 23 21 21 22 23 22 22 21 20 20 23 25 26 27 28 28 29 28 27 28 27 26 26 27 28 28 28 29 29 29 29 29 29 31 32 33 33 33 34 35 36 37 38 37 35 34 34 34 33 31 30 30 31 31 32 32 32
70 67 66 63 61 61 57 53 50 48 48 48 44 41 40 39 37 38 40 38 34 34 34 35 34 28 27 28 24 22 21 21 23 22 22 22 20 19 20 21 23 24 26 27 28 30 31 30 30 29 29 28 28 29 29 29 30 31 31 31 31 31 31 32 33 34 34 35 35 36 37 38 38 37 36 35 35 34 34 34 34 34 35 35 35 35
69 66 65 64 63 62 60 58 55 52 53 51 44 41 41 39 39 40 42 41 35 33 35 37 39 34 28 28 25 23 24 23 22 23 21 19 19 20 21 20 21 22 24 26 27 28 30 29 29 30 30 31 30 30 30 31 31 32 33 33 33 33 33 33 33 34 35 36 36 37 38 38 38 38 37 37 36 36 37 38 38 38 38 38 38 38
70 68 65 64 63 62 62 61 58 55 55 52 45 42 42 41 43 44 43 41 35 34 37 39 43 38 29 28 26 24 26 23 22 24 19 18 21 21 20 19 21 22 23 25 26 28 29 28 28 29 29 30 30 31 32 33 33 33 34 34 34 34 34 35 35 35 36 36 36 37 38 39 39 39 38 38 38 39 39 40 42 41 40 40 40 41
71 69 66 65 64 62 62 61 59 57 56 52 45 44 45 44 45 46 41 39 37 38 40 42 44 41 31 27 25 25 26 24 23 22 19 19 21 21 21 21 22 22 23 25 26 27 28 27 27 28 28 28 29 31 32 33 33 34 35 35 35 35 35 36 36 37 37 37 38 38 38 39 40 40 39 40 40 41 41 42 43 43 43 43 42 43
71 69 67 66 65 63 62 61 58 56 55 51 47 47 47 45 45 44 41 39 40 42 44 44 44 44 36 25 23 27 28 25 22 20 20 21 21 21 23 24 24 24 24 25 25 26 26 25 24 25 26 27 27 29 30 30 30 31 33 34 35 36 36 37 37 38 38 39 40 40 40 40 40 40 41 42 43 43 43 43 44 45 45 45 45 45
69 68 67 66 65 64 62 59 56 54 53 51 50 49 46 44 44 43 42 41 42 45 47 47 43 44 41 26 23 30 29 23 21 20 21 21 21 22 23 24 24 23 24 24 24 25 26 25 23 23 24 25 25 26 26 27 28 29 30 31 33 34 36 38 39 39 40 40 42 42 42 41 41 41 43 44 45 46 46 46 46 46 47 47 47 47
68 66 65 64 64 63 58 56 55 52 52 51 51 49 44 43 44 44 45 44 45 48 49 49 45 44 44 33 26 30 29 22 21 22 22 23 23 23 24 24 23 23 23 23 23 24 25 25 24 23 23 24 24 24 25 25 26 27 28 29 30 32 34 36 38 39 40 42 43 43 44 43 43 44 45 46 46 47 47 48 48 48 48 48 48 49
66 64 65 64 62 59 55 54 54 52 52 52 52 51 46 44 46 47 48 48 49 51 50 49 47 45 47 40 28 27 27 23 22 24 24 25 25 24 24 24 23 23 22 22 23 23 23 23 23 22 21 21 22 23 24 25 25 26 28 28 29 31 32 33 35 37 39 41 42 44 45 45 46 47 47 48 48 48 48 48 49 49 50 50 50 50
68 66 66 66 62 60 58 56 57 56 54 53 54 53 48 47 49 51 52 53 53 54 51 48 47 46 48 43 30 24 25 23 22 25 28 28 27 26 25 24 23 23 22 22 22 21 20 21 21 21 20 20 21 22 23 25 25 26 27 27 28 29 30 31 33 35 36 38 40 42 44 46 47 48 49 49 49 49 49 49 50 50 50 51 51 51
71 69 67 67 66 63 62 60 60 60 56 56 57 55 51 50 53 54 56 56 55 54 51 48 47 48 48 43 34 26 24 25 24 27 31 30 28 28 26 25 24 23 22 21 21 21 21 21 21 21 21 21 22 22 24 25 25 26 26 27 27 28 29 29 30 32 34 36 38 41 44 46 48 49 50 51 51 51 51 51 52 51 51 51 52 52
74 72 71 71 69 66 65 64 64 63 59 60 62 60 56 55 56 57 57 57 56 54 52 49 48 50 47 42 38 30 26 28 27 27 29 30 30 29 29 27 24 24 24 23 23 22 22 22 22 22 21 22 22 23 24 24 25 25 26 26 27 28 28 28 29 30 31 33 36 39 42 45 48 49 51 52 52 53 53 54 54 53 53 53 53 53
77 77 76 76 73 69 67 66 65 62 58 58 61 60 58 57 57 57 57 56 55 54 52 51 51 51 45 41 39 33 29 29 28 27 28 30 30 29 29 28 26 26 25 25 25 24 23 22 22 22 23 23 24 24 25 25 25 25 26 26 27 28 28 28 28 29 30 32 34 37 40 43 46 48 50 52 54 55 55 56 56 56 56 55 55 55
77 76 76 74 72 68 66 66 65 62 59 58 60 60 58 57 57 58 58 57 56 55 54 53 53 50 45 43 41 38 35 32 29 28 28 29 30 30 30 29 29 29 29 28 27 26 25 24 23 23 24 25 25 26 26 26 26 26 27 27 28 28 28 28 28 28 29 31 32 34 37 39 42 45 48 51 53 55 57 58 59 59 58 58 58 57
78 77 76 74 71 68 66 66 64 62 60 60 61 62 59 55 55 56 57 57 56 57 56 54 53 50 47 46 44 40 37 35 31 30 29 30 32 32 32 32 32 33 32 30 28 26 26 25 25 26 26 27 27 27 27 27 27 27 27 28 29 29 29 28 29 29 30 31 32 33 34 36 38 40 43 45 49 52 55 58 60 60 60 60 59 59
78 78 78 76 73 70 68 68 67 64 62 62 62 61 59 56 57 58 59 58 57 58 58 56 54 52 51 49 45 40 37 36 34 32 31 32 34 34 34 34 34 33 31 29 28 27 27 27 28 28 28 29 29 28 28 27 27 28 28 28 29 29 29 29 29 30 30 31 32 32 33 35 36 37 38 41 43 47 50 54 58 60 61 60 60 60
76 77 77 77 75 72 70 70 70 68 66 65 64 62 60 59 59 60 61 61 60 60 60 58 57 55 53 49 44 39 37 37 38 35 33 34 36 37 36 35 34 32 30 29 29 28 28 29 29 29 30 30 30 29 28 28 28 28 28 29 29 29 29 29 29 29 30 30 31 32 32 33 34 35 37 38 40 42 45 49 54 58 60 60 60 59
72 74 76 75 74 73 73 73 72 70 68 67 67 66 64 63 62 61 61 60 59 59 59 59 59 57 53 47 43 40 38 38 39 38 36 36 37 38 36 34 33 32 30 29 29 30 30 30 30 30 31 31 31 30 29 29 29 29 29 29 29 29 29 29 30 30 30 30 31 32 32 33 34 35 37 38 39 41 43 47 50 54 57 59 59 59
72 73 75 74 74 75 76 74 72 70 68 68 69 69 68 68 66 64 63 61 60 59 59 60 60 58 52 47 43 41 39 38 38 39 39 38 38 36 34 33 33 32 31 31 31 32 32 31 30 31 32 32 31 30 30 30 30 31 31 31 31 31 31 31 30 30 30 30 30 31 32 33 35 37 38 40 40 41 43 45 47 51 54 56 58 59
73 73 73 74 74 73 72 71 70 70 69 68 67 67 67 67 66 65 64 62 60 60 59 60 60 57 52 49 44 39 39 39 39 40 42 41 38 34 33 32 32 31 32 32 33 33 32 31 31 32 33 32 31 30 30 30 31 32 32 33 33 33 33 32 31 30 30 30 30 31 32 34 36 37 39 40 41 42 42 43 45 47 49 52 54 56
73 74 73 73 72 71 69 70 71 70 69 68 67 67 65 65 65 64 62 60 59 59 58 59 60 57 53 52 47 39 38 41 42 42 42 40 37 33 31 30 30 31 32 32 33 33 33 32 32 32 32 31 30 30 31 31 32 33 34 34 34 33 32 31 30 30 30 30 30 31 32 33 35 36 37 38 39 40 41 42 44 45 46 48 50 52
77 78 77 75 73 71 69 69 69 69 70 70 69 68 67 67 65 62 61 59 58 59 58 58 60 59 57 54 47 40 39 41 41 41 39 36 34 32 30 29 30 32 33 34 34 34 34 33 32 31 30 30 30 31 31 32 33 34 35 35 34 33 31 29 29 29 30 30 31 32 33 34 35 35 36 37 38 39 40 40 41 43 44 46 48 50
77 78 78 77 75 75 74 74 72 72 71 70 68 67 68 67 65 64 62 61 62 62 60 59 61 60 57 53 46 41 41 40 38 37 35 34 34 33 33 34 35 36 36 36 36 35 34 32 31 31 30 31 31 30 31 33 34 34 34 33 32 30 29 29 29 29 30 31 31 32 33 34 34 35 36 37 37 38 39 39 40 41 43 45 47 49
75 77 77 77 78 79 78 75 72 71 71 71 69 68 68 67 67 66 64 66 67 64 62 62 61 57 53 50 47 42 40 37 35 34 34 35 37 36 37 39 38 38 38 38 36 35 33 32 31 31 31 30 30 31 33 34 34 33 32 30 28 28 29 29 29 30 31 31 32 32 32 33 33 34 35 36 37 37 38 38 39 40 41 43 46 48
77 78 76 75 76 73 70 68 67 67 69 70 68 68 67 68 69 68 67 67 64 60 61 59 54 51 49 47 45 41 37 34 33 34 35 36 38 39 40 41 41 41 40 39 37 35 33 32 31 30 29 29 31 33 34 34 33 32 30 29 29 30 30 30 30 30 31 31 31 31 31 32 32 33 34 35 36 36 37 37 38 38 39 41 43 45
76 77 74 72 70 66 64 66 65 64 65 64 64 64 64 65 67 68 67 63 58 60 61 54 47 47 45 42 40 36 33 31 31 34 35 37 39 41 42 42 42 42 41 38 36 35 34 33 30 29 29 31 33 34 33 33 32 31 31 31 31 31 30 30 30 30 30 30 31 31 31 32 32 33 34 35 35 36 36 37 37 37 37 38 39 41
71 70 67 67 66 63 64 64 62 62 63 63 61 60 59 60 62 64 62 56 56 60 56 46 44 45 39 35 35 33 30 30 32 34 36 39 42 43 44 44 42 42 41 38 37 36 34 32 30 29 31 33 34 33 33 32 32 33 33 32 31 30 30 31 31 31 31 32 33 33 34 35 35 35 35 35 36 36 36 36 36 35 35 36 37 39
67 64 61 63 63 61 61 60 58 59 62 63 62 61 59 58 58 58 56 54 55 58 50 42 45 45 36 32 33 33 33 36 38 39 39 41 44 46 46 45 43 43 42 39 38 36 33 32 31 31 32 33 33 33 33 34 34 33 32 31 30 30 31 31 32 33 34 35 36 37 37 38 38 37 37 36 36 36 36 36 35 35 35 35 36 37
64 61 59 60 61 62 61 58 57 59 60 61 61 61 61 60 58 57 55 53 55 55 47 42 45 43 37 35 36 38 41 43 45 45 41 41 45 47 47 46 44 44 43 40 38 36 34 33 32 32 32 33 34 34 35 36 35 33 32 31 31 31 32 33 34 36 37 38 39 40 40 40 40 40 38 37 36 36 36 36 36 36 36 36 36 37
63 61 60 61 63 63 59 58 60 60 60 63 63 62 61 60 58 56 53 52 53 50 45 45 47 44 40 40 40 43 45 45 44 44 41 41 44 46 45 45 45 46 44 42 39 37 34 33 32 32 33 34 35 35 36 36 36 35 33 32 32 33 34 35 37 38 39 39 39 40 41 42 42 41 39 37 36 36 36 37 37 37 37 38 38 38
64 63 64 65 65 61 58 60 60 61 66 69 62 55 54 53 52 53 52 51 50 45 43 45 42 37 36 38 40 42 43 40 39 39 38 40 43 46 46 46 47 47 46 44 41 36 34 32 33 34 34 35 35 36 37 37 36 36 34 34 34 35 37 38 38 38 37 37 38 40 42 43 43 42 39 37 36 36 37 37 38 38 39 39 39 39
67 66 67 67 65 62 61 61 61 66 71 63 49 46 51 52 52 52 50 48 46 44 42 40 34 31 35 38 38 40 39 37 37 38 37 39 44 47 47 48 48 49 49 45 38 33 33 34 36 36 36 36 37 37 37 37 36 36 36 35 36 37 39 40 39 38 37 38 39 41 43 44 43 42 40 37 36 36 37 38 39 39 40 40 40 40
69 67 68 67 64 64 64 63 67 71 65 52 47 51 54 52 52 51 48 46 46 43 39 37 33 34 37 37 36 38 39 38 39 39 37 39 44 46 47 48 50 50 47 40 32 30 34 37 38 39 39 39 39 39 38 38 38 38 37 37 38 40 41 42 41 40 39 39 41 43 43 43 42 42 41 39 38 37 38 38 39 39 39 39 40 40
72 69 68 67 66 67 66 67 70 67 58 55 57 54 49 47 49 50 48 45 43 42 41 41 38 38 39 38 36 38 40 42 43 40 37 40 43 44 46 49 50 47 40 34 31 33 37 39 40 41 41 41 41 41 41 41 40 39 39 39 40 42 43 43 43 43 42 42 43 44 43 43 43 42 42 41 40 39 39 39 39 39 39 39 40 40
74 72 69 67 67 68 68 68 67 64 63 63 57 45 42 43 44 46 46 42 43 47 48 43 38 38 38 38 39 41 42 46 45 37 36 41 44 45 48 50 48 43 36 32 34 37 39 41 42 43 43 43 43 43 43 42 42 42 42 42 42 43 44 45 45 45 44 44 43 43 43 43 43 43 42 42 41 40 39 39 40 40 40 40 40 41
74 74 71 69 68 68 68 69 68 69 68 60 46 39 42 43 43 46 49 47 48 50 47 40 36 36 36 37 41 43 45 47 39 27 30 42 47 48 50 48 43 40 37 36 38 40 42 44 45 46 46 45 44 43 44 44 44 45 45 43 43 44 45 45 46 45 45 44 42 42 43 43 43 43 43 42 42 41 41 40 40 41 41 42 42 42
71 72 72 72 70 69 69 70 70 72 66 50 40 41 45 46 46 50 53 53 50 44 40 36 33 33 36 40 43 46 48 44 33 27 34 46 48 48 48 44 39 38 38 38 40 42 45 46 47 48 47 46 45 45 45 46 46 46 45 44 44 45 46 46 46 45 44 43 42 42 43 43 43 43 43 43 42 42 42 41 41 41 42 43 43 43
72 72 71 71 72 71 70 68 68 68 60 48 45 48 48 47 48 54 58 52 40 34 35 33 29 30 37 43 47 50 48 39 33 36 44 46 45 46 46 43 42 40 38 40 42 44 47 49 49 48 47 46 47 47 46 47 48 47 46 46 46 47 46 46 46 45 44 43 42 43 42 42 43 43 43 44 44 43 43 42 42 42 42 43 43 43
72 73 72 71 70 71 71 69 66 63 56 51 52 52 50 51 57 61 57 43 33 33 36 34 33 35 41 48 52 52 47 40 39 46 49 46 44 46 45 45 45 43 41 43 45 46 49 50 48 47 47 48 49 48 48 49 50 49 49 49 48 48 47 47 46 44 43 43 42 42 42 43 44 44 45 46 45 45 44 44 43 43 43 44 44 44
71 72 74 73 70 70 70 69 68 64 55 54 57 57 55 58 60 58 50 41 37 38 36 36 40 43 47 52 53 51 49 47 48 52 52 49 48 48 47 47 46 44 43 45 47 48 49 48 48 49 51 51 49 48 49 52 52 51 50 49 49 48 48 47 46 44 44 43 42 42 43 44 45 46 47 47 47 46 46 45 45 45 45 46 46 46
69 70 72 74 74 72 69 69 71 67 57 56 60 61 59 60 58 55 51 48 44 41 38 40 44 47 51 53 51 50 51 49 50 53 55 54 53 52 50 49 47 45 45 46 47 48 48 49 50 51 53 53 51 49 50 52 52 50 49 49 49 48 47 46 46 45 45 45 45 45 46 46 47 47 48 48 48 47 47 47 47 47 47 48 48 48
66 68 70 72 74 75 74 73 72 66 60 60 63 62 61 61 60 59 56 51 47 45 42 43 46 50 53 53 51 52 52 49 52 56 56 55 57 56 52 50 49 47 46 47 48 49 50 51 52 52 53 55 54 52 51 50 49 48 49 49 49 48 47 47 47 47 47 47 47 47 47 47 47 47 48 48 49 49 48 48 48 49 49 50 50 51
65 65 67 69 72 74 75 74 69 64 62 64 64 63 64 65 64 62 59 55 52 50 47 47 50 53 55 55 55 55 53 52 56 60 57 56 60 59 52 48 48 47 47 49 50 50 51 52 53 53 55 55 55 53 50 49 48 48 49 49 49 48 47 48 48 47 48 48 48 48 48 48 48 48 49 49 49 50 50 50 50 50 51 51 52 53
63 61 61 63 65 68 71 72 70 67 67 67 66 64 66 68 67 64 63 62 58 54 51 52 54 55 57 60 60 59 58 57 60 62 60 59 61 59 52 48 48 48 48 49 49 50 52 53 54 55 55 56 55 53 51 50 49 50 51 51 50 49 49 49 48 48 49 49 49 50 50 50 49 49 50 50 51 51 51 52 52 52 52 53 54 55
65 61 59 59 60 65 69 70 70 71 70 69 69 67 64 66 67 66 65 63 60 57 56 57 58 59 61 64 64 63 63 62 61 62 61 60 60 58 53 49 49 50 51 50 50 51 54 55 55 56 56 57 56 53 52 52 52 53 54 54 53 52 52 51 50 50 50 50 51 51 51 51 50 50 50 51 52 52 53 53 53 54 54 55 56 57
68 65 63 60 58 63 68 68 66 68 70 70 71 69 65 65 68 68 67 66 63 61 61 62 64 65 66 67 66 65 64 63 61 61 61 60 59 57 55 52 51 52 54 54 53 55 57 57 57 58 58 58 57 54 53 53 54 55 56 56 56 55 54 53 52 51 51 51 52 53 53 53 52 52 52 52 53 53 54 54 55 55 56 57 58 58
72 70 68 63 59 61 67 67 65 67 72 74 73 72 71 71 74 75 73 70 66 64 65 67 69 70 71 71 68 66 66 64 61 60 60 60 59 58 56 55 53 53 54 55 56 58 60 60 60 60 60 60 59 57 55 55 56 57 57 58 58 57 56 55 54 53 53 53 53 54 55 55 55 54 54 54 54 54 55 55 56 57 58 58 60 60
78 75 70 66 64 64 67 66 62 62 69 72 71 71 73 75 76 77 75 72 69 69 71 72 72 72 73 72 69 68 67 65 62 61 61 60 61 60 58 56 55 55 56 57 58 59 60 62 62 63 64 64 62 60 59 58 59 59 59 60 60 59 58 57 56 55 55 54 55 56 56 57 57 57 57 56 56 56 56 56 57 58 59 60 61 62
82 78 72 69 68 66 63 59 54 55 61 63 62 64 70 73 74 74 73 73 72 72 73 73 72 72 72 71 71 71 69 67 65 64 63 62 62 61 59 57 57 57 59 60 61 62 62 64 65 67 68 67 64 63 62 62 62 62 62 62 62 61 61 60 59 58 57 56 56 57 58 58 58 59 59 58 58 57 57 57 58 60 61 62 63 64
Wind_Direction
218 219 218 217 218 221 222 222 224 229 230 230 230 228 229 235 238 240 241 236 237 245 245 240 229 226 231 230 231 235 235 238 242 245 247 250 254 256 255 254 253 252 250 251 253 255 257 258 260 260 259 260 262 264 267 269 270 269 267 263 261 260 260 259 258 258 258 259 260 261 262 262 262 263 265 268 270 272 273 276 277 279 280 280 279 276
219 219 219 218 218 221 224 223 223 225 226 227 228 228 230 238 240 241 244 242 239 243 246 244 234 225 233 235 233 236 237 238 241 244 246 248 251 254 253 250 249 249 250 253 255 257 257 258 260 261 260 260 260 261 262 264 267 268 270 270 268 267 265 263 260 258 258 259 260 262 262 263 265 267 268 269 271 272 274 276 276 276 277 276 275 274
218 218 218 218 219 221 224 224 223 222 225 228 229 230 231 235 239 242 245 244 240 241 243 245 241 228 231 236 235 238 240 241 243 245 247 248 250 253 253 251 250 250 252 255 258 259 259 259 260 260 261 261 260 261 261 262 264 266 269 270 269 268 268 268 267 265 264 263 263 264 265 267 268 269 269 270 272 273 274 274 273 273 273 273 273 274
220 220 219 219 220 221 223 224 224 224 226 228 228 231 232 234 238 242 245 244 239 242 245 248 248 236 232 236 236 240 242 241 243 244 245 249 251 252 253 253 254 256 257 259 260 262 262 262 261 261 261 262 261 262 264 264 264 265 266 267 268 269 269 270 272 272 271 269 268 268 268 269 270 271 270 270 271 272 271 270 270 270 271 273 274 275
222 222 222 222 222 222 223 224 225 227 230 231 230 233 237 238 240 240 243 244 240 243 247 250 251 242 235 238 237 239 242 242 245 247 247 250 253 252 254 257 258 258 259 260 261 263 265 264 263 262 261 261 262 263 265 266 265 265 265 266 266 268 269 271 271 272 273 273 273 272 271 271 271 271 271 270 270 269 268 268 269 269 271 273 275 276
222 223 224 225 225 224 225 226 227 229 233 235 233 236 239 240 240 239 241 245 244 243 246 249 252 247 237 239 239 239 244 243 244 250 251 252 255 256 257 258 259 258 257 259 260 261 263 264 264 264 263 263 263 263 264 264 265 266 267 268 269 269 270 270 271 272 273 275 274 274 274 274 273 272 272 271 270 269 268 269 269 270 272 273 275 277
222 222 224 225 226 226 227 228 229 231 235 236 234 236 239 239 240 241 241 246 247 244 244 247 252 252 241 237 241 245 246 243 243 250 255 255 257 261 260 258 258 258 259 260 261 262 264 264 264 265 266 265 264 263 264 265 267 268 269 270 271 272 272 272 272 272 273 274 275 275 274 274 275 274 273 272 271 270 269 269 269 271 272 272 274 275
222 223 224 226 227 227 228 230 231 232 236 238 237 237 239 240 243 245 243 245 247 248 247 246 250 255 249 236 239 246 246 245 246 251 256 257 259 260 259 258 258 258 259 261 264 267 270 270 268 268 268 268 267 267 270 272 272 272 273 273 273 273 273 272 273 273 273 273 273 274 274 274 275 274 274 273 272 271 270 269 269 270 271 272 273 274
222 224 225 226 228 228 229 231 232 233 236 238 239 239 240 243 246 247 246 244 245 248 250 249 249 254 254 243 238 246 248 249 252 254 255 256 257 257 258 258 259 260 260 263 265 268 272 274 274 273 272 272 272 273 274 275 275 276 276 276 276 275 274 274 275 275 274 273 272 273 274 274 274 273 273 274 274 273 272 271 270 270 270 271 272 273
224 225 226 227 229 229 230 233 234 234 236 238 241 241 240 242 244 245 245 244 244 245 248 251 251 253 254 247 238 247 252 252 253 257 258 260 259 259 261 261 262 263 264 266 267 267 270 274 275 274 274 275 276 276 275 274 274 275 276 276 277 276 276 276 277 277 276 275 274 275 275 275 274 274 273 273 274 274 273 273 273 272 272 272 273 274
226 226 228 228 228 229 230 232 234 234 235 237 239 241 239 239 241 243 243 243 244 244 245 249 253 255 254 247 238 245 254 255 258 263 265 263 262 262 265 268 270 269 269 269 268 268 269 271 273 273 273 273 273 274 274 273 272 271 272 273 274 274 275 276 277 278 278 277 277 277 277 277 277 275 275 274 274 274 274 274 274 274 274 274 274 274
224 225 227 229 228 229 229 229 231 231 232 234 236 238 238 237 239 241 242 242 243 244 245 247 252 255 253 249 247 247 253 258 261 265 265 264 266 268 270 272 273 273 272 270 270 271 269 268 269 271 272 271 271 271 271 271 270 270 269 270 270 271 272 274 275 277 277 278 279 278 278 278 278 277 276 275 274 274 274 274 274 274 274 274 275 275
224 224 226 228 228 228 229 229 230 230 230 232 234 236 235 235 237 239 241 243 244 245 247 248 251 253 251 254 260 258 257 259 258 261 266 269 272 273 273 272 272 273 274 273 273 272 271 270 270 270 271 272 271 270 269 269 269 268 268 268 267 268 268 269 270 273 275 276 277 278 278 278 278 278 278 277 275 274 274 274 274 274 274 274 275 275
223 224 224 226 227 227 228 229 230 232 232 233 235 235 235 235 236 239 241 244 246 247 249 251 253 254 253 256 264 266 264 261 259 260 265 270 272 274 276 276 275 275 275 275 274 273 272 273 272 272 270 269 269 269 269 269 269 269 268 267 266 265 264 265 266 269 271 273 274 275 276 277 278 279 279 279 278 276 274 274 274 274 274 274 275 275
224 224 224 225 226 227 228 230 231 232 232 233 236 237 236 237 239 242 244 246 248 250 251 252 253 254 255 258 263 267 266 264 264 264 266 270 273 275 277 278 277 276 274 274 273 274 273 272 272 271 270 270 269 270 271 271 271 272 271 269 267 265 264 265 265 267 269 271 273 274 276 277 279 280 281 281 281 280 277 276 275 274 274 274 274 274
226 228 229 230 230 230 230 231 231 231 230 231 233 235 235 237 240 242 244 245 247 249 249 251 253 255 258 259 261 263 265 266 269 271 271 273 274 276 277 277 276 275 275 275 275 275 275 274 274 273 273 273 272 271 271 271 272 272 271 270 268 267 267 268 268 269 270 271 273 274 275 276 278 279 280 281 281 281 280 279 277 275 275 275 274 275
227 229 230 231 232 232 232 233 233 233 233 233 234 236 237 238 240 243 245 247 248 250 251 252 254 256 258 257 258 261 265 270 273 274 275 275 276 278 278 277 277 276 277 277 277 277 277 277 277 276 276 274 273 272 271 270 269 268 266 266 266 267 267 269 270 271 272 274 275 276 277 278 278 280 280 281 280 280 280 279 278 277 276 275 275 275
227 229 230 230 230 231 231 233 233 232 232 234 236 238 239 238 238 241 244 245 247 249 251 251 253 254 255 255 257 261 267 271 274 274 274 276 278 279 278 278 279 278 278 278 279 280 279 279 278 277 277 275 273 272 270 268 265 264 263 262 263 265 266 268 269 271 273 275 277 278 279 279 280 281 282 282 281 281 280 279 278 277 276 276 275 276
226 228 230 231 230 231 231 232 232 230 230 233 234 236 237 237 238 239 242 244 246 248 250 251 252 253 254 256 260 265 268 271 273 273 273 275 277 278 278 279 280 280 281 281 280 280 278 278 278 277 275 273 271 269 267 265 264 263 263 263 265 267 269 270 272 273 275 277 280 282 283 283 283 284 284 284 283 282 281 280 278 277 276 276 276 277
225 227 230 231 231 232 232 232 233 233 233 234 234 235 235 237 238 239 242 245 247 249 251 253 254 254 256 260 264 267 268 269 271 272 273 274 275 276 278 280 282 283 282 280 279 279 278 278 277 274 270 268 266 265 265 265 266 266 266 267 269 270 271 273 275 277 279 281 284 286 288 290 291 291 291 290 289 286 283 282 281 280 278 278 278 279
222 225 228 230 230 230 231 233 235 237 236 236 238 239 238 238 239 239 240 242 244 247 250 253 255 256 258 261 263 265 267 268 270 272 273 273 273 275 278 280 281 283 281 280 279 278 277 276 273 268 264 262 262 262 264 266 267 268 269 270 272 273 275 276 278 281 283 286 288 291 293 295 296 296 295 294 292 290 287 285 284 283 282 281 280 280
221 223 225 228 230 230 231 234 235 236 236 236 238 240 242 242 242 242 242 244 246 249 252 256 257 258 260 262 262 263 266 267 267 268 270 272 273 275 277 279 280 281 281 280 278 277 276 273 268 263 261 261 262 264 265 266 267 269 270 271 273 275 276 278 280 283 286 288 291 293 295 296 295 295 294 293 292 291 290 288 287 286 285 284 283 283
224 224 224 227 229 230 230 231 232 233 234 234 234 236 238 240 241 243 245 247 249 251 254 256 257 257 258 260 261 260 262 264 265 266 268 272 275 277 278 278 278 278 277 277 277 277 275 270 264 262 262 263 264 264 265 266 268 270 272 274 275 276 277 279 281 284 286 289 291 292 292 291 291 291 291 291 292 292 291 290 289 288 287 287 286 286
223 222 222 223 226 228 229 230 232 233 233 233 233 235 236 239 241 242 244 246 247 248 250 252 254 253 254 257 260 260 260 260 262 267 272 276 277 278 277 275 274 274 275 275 275 274 272 269 266 264 263 262 262 262 265 268 272 274 275 276 276 277 279 281 284 285 287 289 289 289 289 289 290 291 292 294 294 294 293 292 290 288 287 287 287 287
223 224 223 222 223 226 227 227 228 229 231 233 234 235 237 240 241 240 241 242 242 243 244 246 249 251 253 257 258 259 260 261 264 270 273 275 275 274 273 272 271 272 273 273 272 270 268 266 265 264 262 261 262 266 270 274 276 276 276 277 277 279 281 283 284 285 286 286 286 287 288 289 292 293 295 296 296 296 296 294 292 289 287 286 286 286
224 226 227 227 228 229 230 232 233 234 235 235 233 232 234 236 238 238 239 239 240 242 243 244 248 252 255 257 258 259 261 263 266 269 269 269 269 269 270 270 270 270 270 270 269 267 265 262 261 260 260 261 267 272 276 277 276 276 277 278 278 279 280 281 283 283 283 283 284 286 289 291 294 295 295 295 295 296 296 295 294 291 288 286 286 286
225 227 230 231 233 235 239 242 243 241 238 237 235 234 233 234 235 236 236 238 242 245 245 246 251 253 254 257 259 261 262 261 260 261 261 261 262 265 266 268 269 270 269 269 269 266 262 259 257 256 259 266 272 276 277 276 276 276 277 277 276 277 278 279 280 280 280 282 285 288 291 294 295 295 295 295 295 295 294 294 294 292 290 289 288 287
227 228 230 232 234 236 238 241 241 240 239 239 240 239 237 236 237 237 238 241 243 244 245 249 252 253 254 257 258 258 257 255 253 252 253 254 256 260 263 265 267 269 270 269 267 263 259 257 256 259 266 272 275 275 275 275 275 275 274 274 275 276 278 278 279 281 284 287 290 293 295 296 296 295 295 294 294 293 293 293 293 293 292 291 290 288
228 230 231 233 234 234 235 236 237 237 238 239 239 239 239 239 239 241 243 244 243 244 248 252 252 251 250 251 252 251 248 246 244 243 243 246 251 256 261 264 265 266 267 265 262 259 257 256 259 265 271 274 274 274 273 273 273 273 272 273 275 276 277 279 283 286 289 292 295 297 298 297 297 296 295 294 293 292 291 291 291 292 291 290 288 287
228 229 229 231 233 233 234 235 235 235 236 236 236 236 236 237 239 241 242 242 242 244 247 246 245 245 242 238 239 240 239 239 240 239 237 238 246 254 260 262 261 261 262 260 258 257 257 258 263 268 272 273 273 272 272 272 272 271 272 273 274 276 279 283 286 289 292 296 298 299 299 298 297 297 295 294 292 290 288 288 288 287 287 286 286 286
226 226 227 229 231 232 233 235 236 236 236 236 236 235 235 235 236 235 236 237 238 240 241 238 238 239 235 230 231 236 239 241 244 246 241 236 241 252 259 260 258 258 259 258 255 255 257 260 264 268 270 272 272 273 272 272 271 271 272 273 275 279 282 286 289 292 295 297 299 300 299 299 298 297 295 293 290 286 285 284 284 284 284 284 284 284
224 225 225 228 230 232 233 234 235 236 237 236 235 233 234 234 234 233 235 236 236 237 237 233 235 241 238 230 230 235 239 242 247 251 246 238 240 250 255 256 255 256 257 257 255 255 258 261 264 268 272 273 273 273 272 271 270 271 272 275 278 282 284 287 290 292 294 296 297 298 298 298 297 296 295 292 288 285 283 282 283 283 283 284 284 284
222 223 225 227 230 231 232 233 233 235 237 235 231 230 232 234 234 233 233 234 235 235 233 231 236 242 236 227 227 233 238 243 248 251 247 241 242 247 249 250 252 253 254 254 255 258 260 263 268 272 274 273 271 270 269 269 270 272 274 277 280 282 284 287 288 289 291 293 294 295 295 295 295 295 293 290 286 284 282 282 282 283 283 284 285 286
223 224 226 228 229 229 230 232 234 235 235 233 229 230 233 233 232 232 231 231 232 231 228 228 229 226 223 223 225 229 235 241 244 244 243 242 244 246 247 248 250 250 252 254 257 261 263 265 270 273 272 270 268 267 267 269 271 274 277 279 281 282 284 286 285 284 286 289 291 291 291 293 294 293 292 289 284 282 280 280 281 281 283 284 285 286
224 225 227 228 229 229 230 231 234 235 234 231 229 229 229 230 232 233 230 227 227 227 225 224 222 218 221 224 225 227 231 235 238 238 239 243 246 247 247 248 249 251 253 257 261 264 264 266 270 272 271 270 269 269 269 270 273 277 279 282 283 284 285 284 281 281 284 288 288 289 291 293 293 292 291 288 285 282 281 280 280 281 282 283 285 286
224 225 227 227 227 228 229 231 233 234 232 230 228 226 225 226 226 227 225 221 222 224 221 219 218 217 220 224 227 229 230 230 233 237 244 249 249 248 247 247 249 251 255 259 263 264 265 267 270 272 273 273 273 272 271 272 276 279 281 283 284 284 283 280 279 280 284 286 287 289 292 293 293 291 289 288 287 285 284 284 284 284 284 285 285 286
224 224 225 227 227 227 229 232 233 233 230 229 227 223 221 222 223 226 226 221 221 224 221 219 220 222 225 229 229 230 231 231 235 246 259 257 252 250 249 247 247 251 254 259 262 264 267 270 273 276 277 275 272 270 271 275 278 279 280 281 281 281 279 278 279 282 284 285 287 291 293 293 292 291 289 288 288 288 288 288 288 288 288 288 288 288
225 225 225 226 227 228 230 232 233 233 230 228 225 220 217 218 221 228 228 221 220 225 226 226 229 231 233 236 235 235 237 237 243 261 266 254 248 249 249 247 249 253 256 259 261 264 268 272 275 277 276 272 270 271 274 276 277 277 278 279 278 277 277 279 281 283 284 286 289 291 292 292 292 290 289 288 289 289 290 290 290 290 289 289 289 289
224 225 225 226 227 228 230 230 232 234 232 227 223 218 216 218 221 229 232 225 220 227 233 235 237 238 238 238 238 238 240 243 255 267 255 245 243 244 246 247 250 254 255 257 260 263 267 270 272 273 272 271 270 272 274 275 276 277 278 277 275 274 277 280 282 283 284 287 290 290 290 291 291 290 289 289 289 289 289 289 289 289 289 289 289 289
222 223 224 227 228 229 230 230 232 234 232 226 221 217 218 222 227 233 236 230 223 232 242 244 246 244 241 240 238 237 241 250 261 257 246 242 242 243 244 246 248 251 254 255 258 261 263 264 266 268 269 268 269 271 273 275 275 276 276 274 273 275 278 280 281 283 285 287 289 289 290 290 290 290 289 289 288 288 288 288 287 287 287 287 287 287
223 223 224 226 228 230 231 231 232 233 228 221 219 220 222 226 228 232 236 233 227 234 241 245 247 244 240 240 238 238 241 246 250 249 248 246 245 246 246 246 248 250 253 254 256 257 258 261 264 265 264 264 266 270 273 273 273 274 274 274 274 276 278 279 280 283 285 287 288 288 289 289 289 289 290 289 289 288 287 287 286 286 285 285 285 285
221 223 224 224 225 228 230 231 233 231 223 217 220 223 223 225 229 237 241 236 231 235 239 240 240 240 240 240 239 239 240 242 245 250 253 251 248 248 248 247 247 248 249 252 254 255 256 259 261 262 262 263 265 268 270 271 272 273 274 274 274 275 276 278 281 283 284 286 287 288 288 288 288 289 290 290 289 288 288 287 287 286 286 285 285 285
218 220 223 224 225 225 227 229 231 228 220 218 222 223 224 229 235 239 237 231 232 239 241 239 237 237 240 241 241 241 242 244 247 250 252 252 249 247 248 249 248 246 246 249 252 254 256 256 257 259 262 265 267 268 267 268 269 271 271 272 273 275 277 279 281 282 284 286 287 287 288 288 288 289 289 289 289 289 288 288 287 287 286 286 286 286
216 217 220 222 224 226 226 228 229 226 221 220 223 224 227 232 235 233 230 230 235 239 242 242 240 237 237 238 239 241 242 245 248 248 249 251 250 247 247 250 251 249 247 248 249 252 254 254 256 258 261 264 267 268 266 266 267 268 269 272 274 276 278 280 280 282 284 285 286 287 287 288 288 289 289 289 288 288 288 288 287 287 286 286 287 287
217 218 221 222 224 227 229 230 231 229 225 223 222 223 227 228 227 229 232 233 236 239 242 244 244 240 237 236 236 239 240 241 245 247 247 249 251 249 247 250 252 252 250 248 248 250 251 253 255 257 260 262 265 266 266 265 265 267 270 272 275 278 279 279 280 282 283 284 285 286 287 287 288 288 289 289 288 288 288 288 287 287 287 287 288 289
220 220 222 224 224 226 228 228 228 227 226 225 223 223 226 227 226 228 231 232 234 239 242 243 242 241 238 236 236 238 239 239 242 245 246 248 251 252 250 250 252 254 253 251 251 251 251 253 255 256 259 261 262 264 265 265 266 268 271 273 276 278 278 279 280 281 282 283 285 285 285 286 287 287 288 288 288 288 287 287 287 287 287 287 288 288
225 225 225 226 225 225 226 226 227 226 225 226 225 224 226 229 228 229 231 232 235 239 241 241 240 238 236 236 237 239 241 242 244 247 248 249 252 253 252 251 252 254 254 253 253 253 253 253 255 256 258 259 261 263 265 265 267 269 271 274 276 277 277 278 279 280 281 283 284 284 284 285 285 286 287 287 287 287 286 286 286 286 286 286 286 287
226 229 230 229 228 226 225 225 227 227 225 225 226 225 225 228 231 232 232 233 236 240 241 241 240 238 236 237 239 241 244 247 248 251 253 254 254 254 253 252 252 253 254 254 253 254 254 255 256 257 258 258 260 262 264 265 267 269 272 274 275 275 276 277 278 279 281 282 283 283 283 284 285 285 285 285 285 285 285 285 285 285 285 285 286 286
228 230 231 230 229 227 224 222 225 227 226 225 226 226 225 227 230 232 233 234 237 242 242 242 241 241 240 242 245 247 249 251 253 256 258 259 258 258 257 255 252 251 253 254 254 255 256 257 258 259 260 260 260 262 264 266 267 270 272 274 275 275 276 277 278 279 280 281 283 283 283 284 284 283 283 283 283 283 283 284 285 285 285 286 286 287
229 231 230 229 229 227 224 223 225 230 229 227 228 228 227 228 232 234 235 237 239 243 244 245 245 245 244 246 250 251 251 253 255 257 258 259 260 260 260 258 254 251 251 252 253 254 256 257 258 260 262 262 261 263 265 267 269 271 272 273 274 275 276 276 277 278 279 280 282 282 282 282 282 281 281 282 282 282 283 284 285 286 286 287 287 288
228 230 229 229 228 227 225 223 225 231 231 228 229 232 231 232 236 239 238 239 241 244 246 247 248 247 246 246 249 251 250 251 252 253 253 255 257 259 260 259 256 253 251 250 251 253 255 256 258 259 260 261 262 264 266 268 270 271 272 272 273 274 274 275 276 277 278 279 280 280 281 280 280 280 280 280 281 282 283 284 285 286 286 287 287 288
Height
5776 5778 5781 5786 5793 5798 5801 5805 5809 5813 5815 5818 5821 5823 5825 5825 5827 5829 5830 5833 5835 5835 5837 5840 5843 5845 5845 5846 5848 5848 5850 5852 5854 5855 5856 5858 5859 5860 5862 5864 5866 5867 5868 5867 5868 5869 5871 5872 5873 5874 5875 5876 5877 5878 5879 5879 5880 5880 5880 5882 5882 5882 5882 5883 5883 5884 5884 5885 5885 5886 5886 5886 5886 5886 5887 5887 5887 5887 5888 5888 5887 5886 5885 5885 5884 5883
5769 5773 5779 5787 5794 5797 5801 5804 5808 5810 5811 5814 5817 5819 5822 5822 5824 5826 5826 5830 5834 5834 5835 5836 5839 5843 5844 5844 5846 5847 5849 5851 5852 5853 5854 5855 5856 5857 5859 5860 5862 5863 5864 5864 5865 5867 5868 5869 5870 5871 5872 5874 5874 5874 5875 5876 5877 5877 5878 5879 5880 5880 5879 5880 5880 5880 5881 5881 5881 5882 5882 5882 5883 5884 5885 5884 5884 5885 5885 5885 5885 5883 5882 5881 5880 5879
5763 5769 5777 5784 5789 5792 5796 5799 5802 5805 5807 5809 5812 5815 5818 5818 5821 5823 5823 5827 5831 5831 5832 5832 5835 5841 5841 5841 5844 5845 5848 5850 5850 5851 5852 5853 5854 5855 5857 5857 5859 5860 5861 5862 5863 5863 5865 5866 5867 5868 5869 5871 5871 5871 5872 5873 5874 5875 5875 5876 5877 5877 5877 5877 5877 5878 5878 5878 5878 5878 5879 5879 5880 5881 5882 5882 5882 5882 5882 5882 5881 5879 5878 5878 5877 5876
5762 5767 5774 5779 5783 5787 5791 5794 5797 5800 5801 5803 5808 5811 5814 5816 5819 5820 5820 5824 5828 5828 5829 5830 5831 5836 5838 5839 5842 5845 5846 5847 5847 5849 5850 5851 5853 5853 5854 5855 5856 5858 5858 5859 5860 5860 5862 5863 5864 5865 5866 5867 5868 5868 5869 5870 5871 5871 5872 5873 5873 5874 5874 5874 5874 5875 5875 5875 5875 5876 5876 5876 5877 5878 5879 5879 5879 5879 5878 5878 5877 5876 5875 5874 5874 5873
5761 5767 5772 5776 5779 5782 5786 5789 5792 5795 5796 5800 5806 5809 5811 5814 5816 5817 5817 5820 5825 5827 5826 5827 5826 5830 5836 5837 5840 5843 5842 5844 5846 5846 5848 5850 5851 5851 5852 5853 5854 5855 5856 5856 5857 5857 5858 5860 5861 5862 5863 5863 5864 5866 5866 5867 5867 5868 5868 5869 5870 5871 5871 5872 5872 5871 5871 5872 5872 5872 5872 5872 5873 5874 5874 5875 5876 5875 5874 5873 5872 5872 5871 5871 5870 5869
5756 5762 5768 5772 5775 5779 5782 5786 5789 5792 5794 5798 5805 5808 5809 5811 5811 5812 5815 5817 5823 5824 5823 5823 5820 5825 5834 5835 5837 5840 5840 5842 5844 5844 5847 5848 5848 5849 5850 5851 5852 5852 5853 5853 5854 5854 5855 5856 5857 5858 5859 5860 5861 5862 5862 5862 5863 5864 5865 5866 5867 5868 5868 5869 5869 5869 5868 5868 5869 5869 5869 5869 5869 5870 5871 5871 5871 5871 5870 5869 5868 5868 5868 5867 5866 5865
5750 5756 5762 5766 5770 5775 5778 5782 5787 5790 5791 5795 5803 5806 5806 5807 5807 5809 5813 5816 5818 5819 5819 5820 5817 5819 5829 5834 5835 5837 5837 5839 5841 5842 5845 5846 5846 5847 5848 5848 5849 5849 5850 5850 5851 5851 5852 5853 5854 5855 5856 5857 5858 5858 5858 5859 5860 5861 5861 5862 5863 5864 5865 5865 5866 5866 5866 5866 5866 5866 5866 5866 5866 5866 5867 5867 5866 5866 5866 5866 5865 5864 5864 5863 5863 5861
5747 5753 5757 5761 5765 5769 5773 5778 5784 5787 5789 5793 5799 5801 5802 5805 5806 5808 5811 5813 5814 5814 5814 5817 5817 5816 5822 5832 5835 5833 5834 5837 5840 5842 5842 5843 5844 5844 5845 5845 5846 5847 5847 5848 5848 5849 5849 5850 5852 5852 5853 5853 5854 5854 5855 5856 5856 5857 5857 5858 5859 5860 5861 5861 5862 5862 5863 5862 5862 5862 5862 5863 5863 5863 5863 5862 5862 5862 5862 5862 5861 5860 5860 5859 5859 5858
5747 5749 5754 5758 5760 5764 5771 5776 5780 5784 5786 5790 5793 5796 5800 5803 5804 5806 5808 5810 5810 5810 5809 5811 5816 5814 5815 5829 5833 5829 5831 5835 5837 5839 5839 5840 5841 5841 5842 5842 5843 5844 5845 5846 5847 5847 5846 5847 5849 5850 5850 5850 5851 5851 5852 5852 5852 5853 5853 5854 5855 5855 5856 5857 5857 5858 5859 5859 5858 5858 5859 5859 5859 5859 5858 5857 5857 5857 5857 5858 5857 5856 5856 5855 5854 5853
5742 5746 5751 5753 5755 5763 5771 5773 5776 5781 5784 5787 5789 5792 5798 5800 5800 5802 5803 5805 5805 5805 5805 5807 5812 5813 5811 5822 5830 5827 5829 5834 5835 5835 5836 5837 5838 5838 5839 5840 5841 5842 5843 5843 5844 5844 5844 5844 5845 5846 5847 5847 5847 5848 5848 5848 5848 5849 5849 5850 5850 5851 5851 5852 5852 5853 5854 5854 5854 5854 5855 5855 5855 5855 5854 5853 5853 5853 5853 5853 5853 5852 5852 5851 5850 5850
5739 5744 5745 5747 5755 5762 5766 5768 5771 5776 5779 5783 5784 5787 5793 5795 5796 5797 5797 5799 5799 5799 5802 5804 5808 5811 5807 5813 5825 5827 5827 5831 5832 5831 5832 5833 5834 5835 5836 5837 5838 5839 5840 5841 5841 5841 5841 5841 5842 5842 5843 5844 5844 5844 5844 5844 5845 5845 5845 5845 5846 5846 5847 5847 5847 5848 5848 5849 5850 5850 5850 5850 5850 5850 5849 5849 5849 5849 5848 5848 5848 5847 5847 5847 5847 5846
5731 5735 5738 5745 5753 5756 5758 5762 5766 5770 5774 5778 5779 5782 5787 5790 5790 5791 5791 5792 5793 5794 5799 5803 5806 5806 5803 5808 5821 5827 5826 5828 5829 5828 5827 5828 5830 5832 5834 5835 5836 5836 5837 5838 5838 5838 5839 5839 5839 5839 5839 5840 5841 5841 5841 5841 5841 5841 5841 5842 5842 5842 5842 5843 5843 5843 5843 5844 5844 5845 5845 5845 5845 5844 5844 5844 5844 5844 5844 5843 5843 5842 5842 5842 5842 5841
5724 5729 5735 5740 5744 5747 5752 5757 5759 5763 5769 5772 5773 5776 5780 5783 5783 5784 5784 5786 5789 5792 5796 5801 5802 5801 5801 5806 5815 5823 5824 5825 5826 5825 5824 5825 5827 5829 5830 5832 5833 5833 5834 5835 5835 5835 5835 5836 5836 5836 5836 5836 5837 5837 5837 5837 5837 5837 5837 5838 5838 5838 5838 5838 5838 5838 5838 5839 5839 5840 5840 5840 5839 5839 5839 5839 5839 5839 5839 5838 5838 5837 5837 5836 5836 5836
5718 5722 5727 5729 5734 5741 5745 5749 5754 5759 5765 5767 5768 5771 5773 5776 5777 5779 5781 5783 5786 5790 5794 5797 5798 5796 5801 5807 5811 5817 5820 5820 5821 5822 5822 5822 5823 5825 5826 5828 5830 5830 5831 5831 5832 5832 5832 5833 5833 5833 5833 5833 5833 5833 5833 5834 5834 5834 5834 5834 5834 5834 5834 5834 5834 5834 5834 5834 5834 5834 5834 5834 5834 5834 5834 5834 5834 5834 5834 5833 5833 5833 5832 5832 5831 5830
5712 5713 5718 5723 5729 5737 5741 5745 5751 5756 5761 5763 5764 5767 5769 5772 5775 5777 5779 5781 5784 5788 5790 5793 5792 5793 5800 5805 5808 5812 5814 5815 5817 5819 5820 5820 5820 5822 5823 5824 5826 5826 5827 5828 5828 5829 5829 5830 5830 5830 5830 5830 5830 5830 5830 5830 5830 5830 5830 5830 5830 5830 5829 5829 5829 5829 5829 5829 5829 5829 5829 5830 5829 5829 5829 5829 5829 5829 5829 5828 5828 5827 5827 5827 5826 5825
5711 5714 5721 5727 5731 5736 5739 5741 5746 5749 5753 5756 5758 5759 5763 5770 5773 5773 5775 5777 5780 5782 5784 5787 5788 5792 5798 5801 5803 5807 5808 5810 5813 5815 5816 5817 5817 5818 5820 5821 5822 5822 5823 5824 5825 5826 5826 5826 5827 5827 5827 5827 5827 5827 5827 5827 5827 5827 5827 5826 5826 5826 5825 5825 5825 5825 5825 5825 5825 5825 5825 5825 5825 5824 5824 5824 5823 5823 5823 5822 5822 5822 5822 5821 5821 5820
5708 5712 5718 5723 5728 5733 5735 5737 5742 5746 5748 5751 5752 5754 5763 5769 5769 5769 5771 5774 5776 5777 5779 5783 5786 5790 5794 5795 5799 5803 5805 5807 5809 5811 5812 5813 5814 5815 5816 5817 5817 5818 5819 5820 5821 5822 5823 5823 5823 5823 5823 5823 5823 5823 5823 5823 5823 5823 5822 5822 5822 5822 5821 5821 5821 5820 5820 5820 5820 5820 5820 5820 5819 5819 5819 5818 5818 5817 5816 5816 5816 5816 5815 5815 5814 5813
5705 5708 5711 5717 5721 5725 5728 5730 5735 5739 5741 5745 5749 5755 5761 5762 5762 5765 5766 5768 5770 5771 5774 5779 5782 5785 5787 5791 5796 5800 5803 5804 5805 5806 5808 5809 5810 5811 5811 5812 5813 5814 5815 5817 5818 5818 5819 5819 5820 5820 5820 5819 5819 5819 5819 5819 5818 5818 5818 5818 5817 5817 5817 5817 5816 5816 5816 5815 5815 5815 5815 5814 5814 5814 5813 5813 5812 5812 5811 5810 5810 5809 5809 5809 5808 5807
5701 5703 5707 5711 5715 5720 5722 5722 5725 5729 5733 5739 5745 5750 5753 5753 5756 5759 5760 5762 5765 5766 5770 5774 5777 5779 5783 5789 5795 5798 5801 5800 5799 5801 5803 5805 5806 5806 5807 5808 5809 5810 5812 5812 5813 5814 5815 5815 5815 5816 5815 5815 5815 5814 5814 5814 5814 5813 5813 5813 5813 5813 5812 5812 5812 5811 5811 5811 5810 5810 5809 5809 5808 5808 5808 5807 5807 5806 5806 5805 5804 5803 5803 5803 5803 5802
5695 5698 5700 5704 5711 5715 5714 5713 5718 5724 5730 5735 5738 5742 5745 5747 5750 5754 5756 5759 5762 5763 5766 5769 5771 5775 5781 5789 5792 5794 5797 5796 5795 5796 5798 5800 5801 5802 5803 5805 5805 5806 5808 5808 5809 5810 5810 5810 5811 5811 5810 5810 5810 5810 5810 5810 5809 5809 5809 5809 5808 5808 5808 5807 5807 5807 5806 5806 5805 5804 5804 5803 5803 5802 5802 5802 5801 5800 5800 5799 5798 5798 5798 5797 5797 5797
5687 5690 5692 5697 5702 5703 5704 5709 5717 5724 5727 5730 5733 5736 5739 5741 5743 5747 5751 5754 5756 5759 5762 5765 5767 5773 5781 5786 5788 5789 5792 5792 5791 5791 5792 5794 5796 5798 5800 5801 5802 5802 5803 5804 5804 5804 5805 5805 5805 5805 5805 5805 5805 5805 5806 5805 5805 5805 5804 5804 5804 5803 5803 5803 5803 5802 5802 5801 5800 5799 5799 5798 5798 5797 5797 5796 5795 5794 5794 5793 5792 5792 5792 5792 5791 5790
5678 5682 5685 5689 5692 5696 5703 5710 5716 5718 5720 5725 5729 5732 5735 5737 5739 5743 5746 5751 5755 5757 5760 5762 5763 5770 5777 5780 5783 5787 5787 5787 5787 5786 5787 5788 5790 5793 5796 5796 5798 5799 5799 5799 5799 5799 5800 5800 5800 5800 5800 5801 5801 5802 5801 5801 5801 5800 5800 5800 5800 5800 5799 5799 5799 5798 5797 5796 5796 5795 5794 5794 5793 5793 5792 5791 5790 5789 5788 5788 5787 5786 5786 5785 5785 5784
5673 5675 5678 5683 5687 5693 5701 5704 5706 5710 5714 5718 5721 5725 5729 5731 5734 5739 5744 5750 5753 5754 5757 5757 5757 5766 5773 5772 5777 5783 5782 5781 5781 5781 5783 5785 5786 5789 5791 5792 5793 5794 5794 5795 5794 5794 5794 5795 5795 5796 5797 5797 5797 5797 5797 5797 5797 5797 5797 5797 5796 5796 5796 5795 5795 5794 5793 5792 5791 5791 5790 5789 5789 5788 5787 5787 5786 5785 5784 5783 5782 5781 5780 5779 5778 5777
5661 5663 5669 5675 5680 5686 5693 5696 5700 5704 5706 5709 5713 5720 5723 5725 5731 5737 5741 5745 5746 5747 5751 5750 5750 5761 5767 5767 5773 5778 5777 5776 5776 5777 5779 5781 5782 5784 5785 5787 5788 5788 5789 5789 5789 5789 5789 5790 5791 5792 5793 5793 5793 5793 5793 5793 5794 5793 5793 5793 5792 5792 5791 5790 5790 5789 5788 5787 5786 5786 5785 5784 5784 5783 5782 5782 5781 5780 5779 5778 5777 5775 5774 5774 5772 5772
5654 5657 5662 5667 5671 5676 5680 5684 5689 5693 5697 5703 5711 5716 5718 5723 5728 5730 5733 5735 5734 5737 5743 5741 5745 5757 5763 5764 5769 5772 5770 5771 5773 5774 5776 5777 5777 5779 5780 5781 5782 5783 5783 5784 5784 5785 5785 5786 5787 5788 5788 5788 5789 5790 5790 5790 5790 5789 5789 5789 5788 5787 5786 5786 5785 5784 5783 5782 5781 5781 5780 5779 5779 5778 5778 5777 5776 5775 5774 5772 5771 5770 5769 5768 5767 5766
5651 5650 5654 5660 5661 5663 5667 5675 5683 5689 5694 5699 5703 5707 5712 5717 5719 5721 5724 5722 5722 5731 5736 5734 5743 5757 5760 5760 5764 5766 5766 5768 5769 5770 5771 5772 5772 5773 5774 5775 5776 5777 5778 5778 5779 5780 5781 5782 5783 5783 5784 5785 5785 5786 5786 5786 5785 5785 5785 5784 5783 5783 5782 5781 5780 5779 5779 5778 5777 5776 5776 5775 5775 5774 5773 5772 5771 5770 5769 5767 5766 5765 5763 5762 5761 5760
5644 5644 5651 5656 5657 5664 5673 5680 5686 5689 5691 5694 5697 5702 5707 5709 5709 5712 5713 5713 5722 5731 5729 5731 5745 5754 5754 5756 5759 5761 5763 5764 5765 5766 5766 5767 5767 5767 5768 5769 5770 5771 5772 5773 5775 5775 5776 5777 5778 5779 5780 5781 5781 5781 5781 5781 5781 5781 5780 5780 5779 5778 5777 5777 5776 5775 5774 5774 5773 5773 5772 5771 5771 5770 5769 5768 5766 5765 5764 5762 5761 5759 5758 5757 5756 5755
5637 5640 5648 5652 5658 5667 5673 5675 5680 5686 5689 5693 5697 5700 5703 5705 5705 5705 5707 5715 5726 5723 5720 5734 5746 5746 5749 5753 5754 5756 5759 5759 5761 5761 5761 5761 5761 5761 5762 5763 5765 5766 5767 5769 5770 5770 5772 5772 5773 5775 5776 5777 5777 5777 5777 5777 5777 5776 5776 5775 5774 5774 5773 5772 5772 5771 5770 5770 5769 5769 5768 5767 5767 5766 5764 5763 5762 5760 5759 5757 5756 5755 5753 5752 5751 5750
5632 5638 5647 5651 5655 5662 5664 5666 5673 5680 5683 5687 5691 5694 5699 5701 5701 5702 5707 5718 5721 5714 5719 5738 5740 5736 5745 5749 5747 5751 5753 5753 5755 5754 5754 5755 5755 5756 5757 5758 5760 5761 5762 5764 5764 5766 5767 5768 5769 5771 5771 5772 5772 5772 5772 5772 5772 5772 5771 5770 5770 5769 5769 5768 5768 5767 5766 5766 5765 5764 5764 5763 5762 5761 5759 5758 5757 5756 5754 5753 5752 5750 5749 5747 5746 5745
5628 5636 5643 5645 5649 5654 5657 5661 5667 5672 5675 5679 5682 5687 5691 5693 5696 5700 5705 5712 5712 5710 5721 5733 5729 5729 5740 5742 5741 5745 5745 5745 5746 5746 5746 5748 5749 5750 5752 5754 5756 5756 5757 5759 5760 5761 5763 5764 5765 5766 5766 5767 5767 5768 5768 5768 5767 5767 5766 5766 5766 5765 5765 5764 5764 5763 5762 5761 5760 5759 5759 5757 5756 5755 5754 5753 5752 5751 5750 5748 5747 5745 5744 5742 5741 5740
5625 5633 5638 5641 5644 5646 5650 5657 5661 5664 5668 5672 5675 5679 5683 5686 5689 5693 5697 5702 5703 5705 5717 5723 5719 5724 5734 5735 5735 5737 5737 5737 5738 5739 5741 5743 5744 5746 5747 5749 5750 5750 5752 5755 5756 5757 5758 5759 5760 5760 5761 5762 5763 5763 5763 5763 5763 5763 5762 5762 5761 5761 5761 5760 5760 5759 5757 5756 5755 5754 5753 5751 5750 5750 5748 5748 5747 5745 5744 5743 5742 5740 5739 5737 5736 5734
5622 5629 5633 5634 5635 5638 5647 5653 5653 5657 5661 5662 5665 5670 5675 5679 5683 5687 5693 5696 5697 5702 5712 5714 5712 5721 5729 5727 5727 5729 5729 5731 5733 5735 5738 5739 5740 5742 5743 5745 5745 5745 5747 5749 5751 5753 5753 5754 5754 5755 5757 5758 5758 5759 5759 5758 5758 5758 5758 5758 5757 5757 5756 5755 5755 5753 5752 5751 5750 5749 5748 5746 5745 5744 5743 5743 5741 5740 5739 5738 5736 5735 5734 5733 5731 5730
5618 5623 5624 5624 5628 5636 5643 5644 5646 5649 5646 5645 5654 5666 5670 5674 5679 5683 5688 5691 5693 5699 5704 5704 5710 5721 5723 5720 5722 5723 5724 5728 5731 5733 5735 5736 5736 5737 5738 5740 5740 5740 5741 5743 5745 5747 5747 5748 5750 5751 5753 5753 5753 5754 5753 5753 5754 5753 5754 5753 5752 5752 5751 5750 5749 5748 5747 5746 5745 5744 5743 5742 5741 5740 5739 5738 5737 5735 5734 5733 5732 5730 5729 5728 5727 5725
5612 5616 5617 5619 5625 5631 5634 5636 5639 5635 5630 5639 5658 5666 5666 5669 5674 5677 5682 5687 5690 5694 5697 5701 5710 5716 5714 5714 5718 5719 5721 5725 5727 5728 5731 5732 5731 5731 5733 5734 5734 5734 5735 5737 5740 5741 5742 5744 5746 5746 5748 5748 5748 5748 5748 5748 5749 5749 5749 5749 5748 5747 5746 5745 5744 5743 5742 5742 5741 5739 5738 5737 5736 5735 5734 5733 5732 5731 5730 5728 5727 5726 5724 5723 5722 5720
5605 5610 5611 5615 5621 5624 5626 5629 5625 5620 5628 5647 5656 5655 5659 5667 5672 5674 5678 5683 5686 5689 5694 5699 5704 5707 5707 5710 5713 5715 5717 5719 5719 5721 5726 5726 5725 5726 5728 5728 5728 5728 5729 5732 5734 5736 5738 5741 5741 5741 5742 5742 5742 5743 5743 5743 5744 5743 5744 5743 5742 5741 5741 5740 5739 5738 5737 5737 5736 5734 5733 5732 5732 5730 5729 5728 5727 5726 5725 5724 5722 5721 5720 5719 5717 5716
5599 5603 5604 5609 5614 5616 5617 5617 5614 5621 5635 5641 5639 5645 5657 5664 5665 5666 5670 5677 5681 5684 5686 5690 5695 5699 5701 5704 5708 5709 5710 5711 5712 5716 5721 5721 5720 5721 5721 5722 5722 5723 5724 5727 5729 5731 5734 5735 5736 5736 5736 5737 5737 5737 5737 5737 5738 5738 5738 5737 5737 5736 5735 5734 5733 5733 5733 5732 5730 5729 5728 5727 5726 5725 5724 5723 5722 5721 5720 5719 5718 5717 5715 5714 5712 5711
5592 5595 5598 5602 5605 5608 5610 5611 5615 5624 5628 5627 5634 5650 5658 5659 5662 5664 5666 5673 5677 5675 5677 5683 5690 5693 5695 5699 5701 5701 5703 5704 5706 5713 5717 5715 5714 5715 5714 5715 5717 5719 5721 5723 5725 5727 5729 5729 5730 5731 5731 5731 5730 5730 5730 5731 5732 5732 5732 5731 5731 5730 5730 5729 5728 5728 5728 5726 5725 5724 5723 5722 5721 5719 5718 5717 5716 5716 5715 5714 5713 5712 5710 5709 5707 5706
5586 5589 5592 5595 5598 5603 5606 5607 5611 5613 5615 5625 5643 5653 5654 5655 5659 5660 5660 5664 5667 5669 5675 5683 5688 5690 5693 5695 5696 5697 5698 5698 5703 5712 5713 5708 5706 5707 5708 5711 5714 5716 5717 5719 5721 5722 5723 5724 5724 5725 5724 5724 5724 5724 5726 5726 5726 5726 5726 5726 5726 5725 5724 5724 5723 5723 5722 5721 5720 5719 5717 5716 5715 5714 5713 5712 5711 5710 5709 5708 5707 5706 5705 5704 5702 5701
5580 5583 5586 5588 5591 5595 5597 5600 5603 5605 5615 5635 5649 5650 5648 5650 5653 5653 5649 5652 5662 5671 5676 5680 5684 5687 5690 5690 5690 5691 5690 5692 5702 5708 5703 5700 5702 5703 5705 5709 5712 5712 5713 5715 5717 5718 5719 5719 5718 5718 5717 5717 5718 5719 5720 5720 5720 5720 5720 5720 5719 5719 5719 5719 5718 5717 5717 5716 5714 5713 5712 5711 5710 5709 5708 5706 5705 5704 5703 5702 5701 5701 5700 5698 5697 5696
5572 5576 5579 5580 5582 5586 5590 5594 5598 5604 5621 5640 5644 5641 5642 5646 5648 5644 5640 5652 5671 5676 5673 5677 5682 5683 5683 5682 5682 5683 5683 5690 5700 5698 5692 5695 5701 5700 5702 5706 5706 5706 5709 5711 5712 5713 5713 5712 5712 5712 5712 5712 5712 5713 5714 5714 5714 5714 5714 5714 5713 5713 5713 5713 5712 5712 5711 5710 5709 5707 5707 5706 5704 5704 5702 5701 5700 5699 5698 5697 5696 5695 5694 5693 5691 5690
5566 5570 5571 5573 5577 5581 5583 5588 5593 5603 5621 5634 5633 5633 5638 5640 5636 5633 5641 5663 5676 5671 5668 5674 5677 5677 5677 5674 5674 5676 5681 5688 5691 5686 5684 5692 5697 5695 5697 5700 5700 5701 5703 5704 5706 5706 5706 5706 5707 5707 5706 5706 5706 5707 5707 5707 5707 5707 5708 5708 5708 5708 5707 5706 5706 5706 5705 5704 5703 5702 5701 5700 5699 5698 5697 5696 5695 5694 5693 5692 5690 5689 5688 5687 5686 5684
5560 5563 5564 5568 5572 5574 5578 5584 5587 5597 5616 5626 5624 5626 5630 5629 5629 5637 5652 5665 5665 5660 5664 5669 5668 5669 5668 5666 5668 5673 5677 5682 5683 5679 5679 5685 5688 5688 5690 5692 5693 5695 5696 5697 5699 5699 5699 5701 5701 5699 5699 5699 5701 5702 5702 5701 5701 5701 5701 5702 5702 5701 5701 5700 5700 5700 5699 5698 5697 5696 5696 5695 5694 5693 5692 5690 5690 5688 5687 5686 5685 5684 5683 5681 5680 5679
5554 5556 5557 5562 5566 5569 5573 5575 5576 5591 5614 5621 5617 5620 5625 5629 5635 5642 5648 5651 5652 5654 5658 5659 5660 5662 5660 5659 5664 5669 5671 5675 5677 5674 5673 5674 5677 5680 5682 5683 5685 5688 5690 5691 5692 5692 5693 5694 5694 5693 5692 5692 5694 5696 5696 5695 5695 5695 5695 5695 5695 5695 5695 5695 5694 5693 5693 5692 5691 5691 5690 5689 5688 5687 5686 5684 5684 5682 5681 5681 5679 5678 5677 5675 5674 5673
5545 5547 5551 5558 5562 5563 5564 5566 5574 5596 5613 5612 5610 5618 5625 5629 5633 5633 5635 5642 5646 5646 5648 5650 5652 5653 5652 5655 5659 5660 5664 5668 5668 5665 5666 5666 5668 5671 5674 5676 5678 5680 5682 5684 5685 5686 5686 5686 5687 5688 5687 5686 5687 5688 5689 5689 5689 5689 5689 5689 5689 5689 5689 5688 5687 5687 5687 5686 5685 5684 5683 5682 5681 5680 5679 5678 5677 5676 5675 5674 5673 5672 5671 5670 5669 5667
5541 5547 5551 5555 5557 5557 5560 5569 5583 5598 5604 5602 5608 5617 5618 5619 5623 5625 5629 5635 5636 5636 5640 5643 5643 5644 5646 5648 5650 5652 5657 5660 5658 5657 5659 5659 5659 5662 5667 5670 5671 5672 5675 5677 5678 5679 5680 5680 5681 5681 5681 5681 5681 5681 5682 5682 5682 5683 5683 5682 5682 5682 5682 5681 5681 5680 5680 5679 5678 5678 5677 5676 5675 5674 5673 5672 5671 5670 5669 5668 5667 5666 5665 5664 5663 5662
5541 5545 5545 5546 5547 5549 5556 5566 5577 5586 5593 5598 5605 5608 5606 5608 5614 5617 5620 5623 5625 5628 5633 5634 5634 5637 5639 5639 5641 5644 5647 5650 5650 5650 5652 5653 5652 5655 5661 5664 5665 5666 5668 5669 5671 5673 5673 5673 5674 5674 5674 5675 5675 5675 5676 5676 5676 5676 5676 5675 5676 5675 5675 5674 5674 5673 5673 5672 5671 5671 5670 5669 5668 5667 5666 5665 5664 5663 5662 5661 5660 5659 5658 5657 5656 5655
5532 5533 5533 5536 5538 5542 5550 5561 5571 5579 5588 5593 5595 5600 5604 5606 5609 5611 5612 5615 5618 5620 5623 5625 5626 5628 5628 5629 5632 5635 5637 5640 5642 5643 5646 5648 5648 5651 5655 5658 5659 5660 5661 5662 5664 5665 5665 5666 5667 5667 5668 5668 5668 5668 5668 5668 5669 5669 5668 5668 5669 5668 5668 5667 5667 5666 5666 5665 5664 5664 5663 5663 5662 5661 5660 5658 5657 5656 5655 5654 5653 5652 5651 5649 5648 5647
5523 5523 5525 5528 5531 5536 5547 5560 5568 5572 5577 5582 5587 5595 5600 5600 5601 5602 5603 5605 5608 5610 5614 5617 5618 5619 5620 5621 5623 5626 5629 5632 5635 5638 5640 5642 5643 5646 5649 5651 5653 5653 5654 5655 5656 5656 5657 5659 5659 5660 5661 5660 5660 5660 5660 5660 5661 5661 5660 5661 5661 5660 5660 5660 5659 5659 5659 5658 5657 5657 5656 5656 5655 5653 5652 5651 5650 5649 5648 5647 5646 5645 5643 5642 5641 5640
5517 5515 5517 5523 5526 5531 5541 5553 5560 5560 5565 5575 5582 5588 5590 5590 5591 5592 5593 5597 5601 5603 5606 5609 5610 5610 5611 5612 5616 5620 5622 5625 5629 5632 5634 5636 5638 5640 5642 5644 5646 5646 5647 5648 5649 5649 5650 5651 5652 5652 5653 5652 5652 5653 5652 5653 5653 5653 5653 5653 5653 5653 5653 5653 5652 5652 5651 5651 5650 5650 5649 5648 5647 5646 5645 5643 5642 5641 5640 5639 5639 5638 5636 5635 5634 5632
5509 5508 5515 5521 5522 5526 5539 5554 5560 5558 5563 5574 5580 5580 5581 5584 5584 5585 5589 5594 5597 5598 5600 5601 5602 5603 5604 5607 5610 5613 5616 5620 5624 5625 5628 5630 5632 5632 5634 5636 5638 5639 5640 5640 5641 5642 5643 5644 5644 5645 5644 5644 5644 5645 5645 5645 5645 5645 5645 5645 5645 5645 5645 5645 5645 5644 5643 5643 5643 5642 5642 5641 5639 5638 5637 5635 5634 5633 5632 5632 5631 5630 5629 5628 5626 5624
5501 5506 5514 5517 5520 5528 5543 5557 5559 5554 5559 5570 5572 5571 5574 5578 5578 5580 5585 5589 5591 5592 5593 5592 5593 5595 5598 5601 5603 5604 5609 5614 5615 5616 5620 5623 5623 5624 5625 5627 5628 5630 5631 5632 5632 5634 5635 5635 5636 5636 5635 5636 5636 5637 5637 5638 5637 5637 5638 5637 5637 5638 5637 5637 5637 5637 5636 5636 5635 5634 5634 5633 5631 5630 5629 5628 5627 5626 5625 5624 5623 5622 5621 5619 5617 5615